RH
3 4 7 6 10 20 18 14 13 12 12 17 21 20 22 39 40 39 33 36 37 25 23 20 14 12 13 14 16 17 18 19 21 25 27 27 27 26 26 26 26 26 25 25 25 25 25 24 24
3 4 6 8 16 21 15 15 16 16 22 20 22 21 29 32 33 33 39 39 29 25 28 24 19 13 12 14 14 18 17 19 21 25 29 32 31 30 30 31 31 31 31 30 28 27 26 26 26
3 3 6 16 21 17 14 14 21 19 24 22 19 22 24 23 24 31 39 26 21 21 33 32 26 16 14 14 19 23 23 20 24 30 36 38 34 32 31 34 33 34 37 39 40 39 38 36 32
3 3 7 13 11 10 11 11 13 16 24 25 24 37 46 36 29 37 33 20 18 21 20 29 31 21 19 21 18 21 26 24 28 35 42 44 39 33 32 31 34 33 34 39 42 44 46 48 51
4 10 17 19 13 13 12 13 12 12 21 28 38 37 40 38 29 22 25 17 20 16 15 30 36 42 39 43 38 24 28 31 34 39 46 45 40 35 32 31 32 33 33 35 40 42 43 42 48
6 20 21 18 16 16 14 12 11 12 14 33 34 35 48 54 50 24 19 21 20 16 13 35 39 54 55 47 41 42 38 38 40 44 50 46 36 34 32 32 32 32 31 34 36 40 40 39 37
6 21 19 21 19 13 12 14 14 15 12 24 29 30 38 59 56 42 20 21 20 17 12 37 37 45 50 52 50 47 42 43 44 46 50 38 31 31 30 30 31 32 32 31 35 35 37 37 35
8 13 10 15 11 14 16 15 16 16 14 30 33 34 36 44 53 44 23 22 21 16 11 23 30 34 46 58 57 50 49 47 48 50 37 27 27 27 29 30 32 34 35 34 33 34 34 34 35
12 14 8 8 14 14 16 16 17 18 15 22 32 34 40 43 51 52 24 22 22 18 11 18 25 30 45 49 48 52 51 52 47 29 25 26 28 30 30 31 32 32 34 35 35 34 34 34 33
18 15 12 9 16 15 14 17 17 15 15 26 34 38 39 47 45 56 40 23 23 22 13 16 21 29 35 40 42 44 38 29 26 28 29 23 13 11 11 14 20 28 34 36 36 35 35 35 36
18 17 14 12 14 15 14 13 16 17 16 18 28 31 41 42 43 44 33 25 23 23 18 14 20 25 25 28 30 29 28 29 30 25 13 11 10 11 11 12 13 13 19 32 38 38 38 38 37
20 19 20 18 13 14 11 13 10 10 13 18 21 23 30 32 37 36 39 29 25 25 23 19 18 21 22 26 23 23 28 26 23 14 11 11 11 12 13 14 13 14 15 15 22 30 40 40 41
13 18 19 17 18 14 16 14 16 12 12 18 19 22 26 33 39 44 41 34 31 27 25 23 20 17 21 20 18 23 21 17 13 13 13 13 13 15 15 14 12 10 11 10 11 12 18 32 38
18 19 14 17 25 25 19 15 20 10 13 12 19 21 23 30 31 42 48 46 44 30 28 27 25 21 22 19 18 18 19 16 13 13 13 14 16 16 14 12 10 9 9 8 7 8 9 11 15
17 18 11 10 10 12 14 14 12 15 18 17 16 19 22 25 35 32 40 46 50 38 32 30 28 25 23 22 18 18 18 15 15 14 16 17 17 14 12 10 9 9 9 8 8 8 9 9 8
23 22 18 17 17 20 26 23 20 20 19 17 18 17 19 20 33 37 36 43 63 44 34 34 33 29 26 24 19 20 19 18 17 16 17 19 19 16 14 11 9 9 9 10 9 9 9 9 9
39 35 29 29 32 30 28 26 24 19 21 18 18 18 17 20 33 35 36 38 50 64 42 38 36 34 31 28 25 25 24 20 19 19 20 20 21 19 18 15 11 9 9 9 10 10 10 10 10
45 48 44 44 37 37 36 33 28 23 22 21 21 19 19 19 26 26 34 41 55 59 53 46 42 39 37 33 32 31 30 26 24 22 22 23 24 22 22 21 17 11 10 10 10 10 10 11 11
57 54 50 46 44 41 39 37 34 30 29 27 23 22 24 20 21 25 35 50 53 53 50 43 49 42 40 39 38 38 38 36 30 27 24 25 25 26 27 26 20 13 10 10 10 10 10 11 10
57 54 51 46 44 43 42 41 39 37 36 31 30 30 24 25 24 26 39 47 56 45 43 38 42 44 35 34 40 46 47 43 38 34 28 27 27 27 29 28 25 15 11 10 10 10 10 11 11
53 52 50 46 51 51 46 43 41 39 35 35 35 34 33 29 27 24 26 41 48 49 44 44 47 43 49 51 44 45 44 42 40 42 38 30 30 30 30 29 27 21 14 11 10 10 10 11 11
50 50 50 60 58 60 53 52 48 40 37 36 34 35 31 35 30 28 27 26 43 47 46 45 45 46 52 49 49 45 43 47 48 52 48 36 32 33 32 28 28 24 18 16 15 14 13 12 11
51 53 58 56 57 55 52 47 45 40 40 44 40 38 39 36 34 31 32 48 52 56 58 55 53 56 58 56 53 52 52 47 44 51 51 44 36 36 35 31 27 25 22 21 20 19 17 15 12
53 51 52 53 54 64 52 49 51 41 40 38 42 36 34 37 37 32 32 35 39 50 54 55 64 66 67 55 42 30 28 33 48 50 54 52 43 40 39 33 25 24 23 23 24 22 20 16 13
52 50 54 62 66 70 44 47 46 44 46 45 43 41 38 42 42 44 38 37 37 51 68 75 70 63 53 34 33 31 31 33 33 55 58 56 50 45 43 38 28 23 22 23 25 25 21 18 16
55 54 54 70 78 64 56 51 61 52 51 51 53 54 51 44 43 40 36 39 38 41 42 42 43 39 36 35 38 38 36 36 34 41 52 61 57 50 47 44 31 23 22 23 25 25 24 22 19
58 60 55 57 66 78 62 60 58 58 57 60 61 58 60 52 41 41 41 55 38 34 30 31 37 32 28 34 37 37 38 40 38 44 53 61 62 56 52 45 30 25 24 25 27 28 27 24 22
60 60 67 81 97 97 64 54 50 66 70 72 63 54 47 39 32 33 32 35 33 26 24 24 20 16 19 18 23 29 34 38 43 44 51 60 68 64 58 46 30 27 28 30 32 33 31 27 25
54 74 61 64 65 88 76 50 55 62 69 60 53 53 42 32 33 35 34 39 41 34 27 19 19 16 17 20 31 35 46 51 56 52 52 68 77 71 61 49 33 31 33 36 41 40 38 35 60
51 50 56 60 68 70 65 59 56 57 48 61 42 40 39 35 33 34 39 43 43 39 22 36 28 25 24 24 25 32 48 58 59 64 74 80 89 80 68 41 35 44 54 68 78 57 52 63 85
Wind_Speed
4 3 5 3 4 5 15 16 9 3 2 3 6 6 5 2 16 12 8 4 2 4 4 7 13 14 12 10 8 6 4 4 4 3 3 4 4 4 4 5 5 5 5 5 5 5 6 7 8
3 2 3 5 3 9 13 11 2 2 7 7 4 11 7 8 7 6 3 5 3 4 6 7 12 15 14 12 9 8 7 5 3 3 2 1 1 2 3 4 5 5 5 5 5 5 4 4 5
3 3 3 1 6 14 8 15 8 3 3 8 7 12 12 13 12 13 9 5 5 8 9 10 11 14 14 12 11 8 7 6 4 3 1 2 2 2 2 2 3 4 4 4 4 5 4 3 3
3 5 4 7 11 11 14 11 5 8 10 10 14 9 11 13 8 14 16 15 12 10 14 13 12 13 13 13 13 12 9 8 6 5 4 5 5 4 3 3 3 4 4 4 3 3 4 3 2
6 2 3 7 11 14 22 16 17 9 9 9 7 14 14 10 12 15 21 19 13 12 14 12 12 12 13 14 14 14 12 9 8 7 6 8 8 7 6 6 6 6 6 5 4 3 3 4 3
4 3 7 12 16 21 19 18 20 9 5 11 13 17 14 12 13 18 21 18 13 12 12 14 14 13 14 14 15 14 14 12 10 10 9 10 10 10 9 9 9 8 9 9 8 7 6 5 5
4 10 15 18 19 17 20 8 8 7 9 9 18 17 18 16 15 18 21 18 13 14 14 15 14 14 14 14 16 16 15 13 13 13 13 13 13 13 13 12 12 12 11 12 12 11 9 8 8
4 10 16 15 8 20 11 10 10 8 5 6 11 19 22 18 16 16 20 17 13 15 14 16 17 16 15 15 15 16 17 17 16 16 15 16 16 15 16 15 15 15 15 15 16 15 13 12 11
9 15 18 13 2 14 15 12 11 8 11 17 20 24 23 23 22 19 20 18 14 14 14 16 17 15 15 16 17 18 18 17 17 16 17 18 18 18 19 18 20 20 20 19 19 18 17 16 15
11 17 18 13 17 23 22 18 16 15 15 15 23 23 26 24 27 20 22 18 17 15 15 16 16 15 17 16 17 18 18 18 17 17 18 19 20 21 21 22 23 23 24 24 23 22 21 20 19
15 26 22 22 25 26 29 29 20 15 16 19 24 26 26 27 29 30 23 20 18 17 16 16 16 17 18 17 19 20 19 18 18 18 18 19 22 23 24 25 26 27 27 26 26 25 24 23 23
21 23 25 29 27 27 30 33 33 23 22 17 20 26 30 30 32 28 30 27 23 22 18 17 18 20 19 18 20 20 19 20 20 19 21 22 23 25 26 27 28 27 28 28 28 28 27 26 26
24 26 26 26 26 27 23 24 28 30 24 24 22 27 26 27 24 27 26 28 28 24 19 19 20 21 19 20 20 21 22 20 21 20 21 22 23 24 26 27 26 25 26 26 27 27 28 28 28
22 24 29 27 26 28 28 30 27 31 27 25 30 27 27 28 28 27 30 34 32 29 21 22 22 22 22 20 21 22 22 22 21 23 25 24 22 21 22 24 24 23 22 22 24 24 25 25 26
25 30 31 29 30 32 24 34 31 24 20 17 22 29 30 27 29 31 28 37 36 31 25 22 21 24 24 21 22 23 23 24 22 23 25 24 22 21 21 22 21 19 20 21 21 22 23 23 23
25 29 36 34 22 15 14 39 27 21 19 22 22 20 32 37 30 29 30 32 36 35 27 24 22 26 26 24 23 24 24 25 25 23 25 23 22 22 20 21 21 21 20 19 19 18 20 20 20
22 28 29 25 7 19 21 35 29 22 21 17 20 17 28 32 31 29 31 36 35 37 30 29 26 28 27 27 25 25 26 27 26 26 25 23 21 21 19 20 22 21 20 18 18 17 18 17 16
20 18 20 27 21 22 24 22 16 18 15 19 19 20 22 34 35 33 35 35 33 33 34 32 29 28 30 29 27 28 29 28 28 26 26 23 22 21 20 21 21 20 18 17 16 15 15 13 13
20 21 23 22 25 27 25 28 24 21 22 23 28 23 24 28 35 31 34 35 34 37 37 35 33 30 30 31 32 32 31 29 29 27 27 25 24 22 21 22 22 20 19 17 16 15 14 14 14
23 27 29 26 21 21 27 33 27 24 20 26 30 30 31 31 31 26 33 38 39 39 38 34 30 31 30 32 35 36 35 33 31 29 28 28 26 24 22 23 22 21 19 18 17 16 14 15 15
20 23 25 24 22 23 24 34 25 21 24 26 28 30 33 35 29 29 31 34 41 41 40 34 31 33 30 31 35 38 36 36 32 31 29 30 29 26 25 24 22 21 20 18 17 17 16 16 16
20 17 18 20 23 23 17 18 27 24 17 10 9 9 20 18 26 35 29 32 29 34 35 33 31 31 30 33 34 35 33 38 36 35 33 32 31 28 28 26 25 22 21 20 20 19 18 17 18
23 23 23 20 19 20 18 14 24 26 17 7 14 5 7 12 15 28 29 13 23 25 27 30 32 31 30 32 36 38 37 36 40 40 36 34 33 31 30 29 27 26 23 23 21 21 20 19 20
20 16 17 15 15 13 24 18 18 15 11 10 12 17 7 3 6 13 16 10 12 17 22 24 29 31 27 29 36 39 37 37 41 39 38 37 35 33 32 32 30 29 27 25 24 23 23 21 21
20 12 3 3 4 7 9 11 20 11 7 8 13 17 13 7 5 5 9 13 16 15 14 19 24 25 31 31 27 28 33 36 41 36 38 39 37 34 33 33 33 33 31 29 28 25 24 23 23
23 18 9 5 4 4 11 7 12 15 16 12 13 16 14 14 8 10 11 22 26 22 24 23 21 25 29 34 32 26 25 29 37 35 36 40 38 35 35 36 36 35 34 32 29 28 26 25 25
29 24 22 18 19 8 8 5 14 8 8 8 12 9 12 14 14 11 11 17 16 21 26 27 25 22 23 27 30 30 29 27 30 35 37 40 39 38 37 38 37 36 36 34 33 31 28 25 25
18 31 19 11 4 5 6 15 11 13 11 7 7 4 6 14 18 20 20 18 21 21 26 28 28 29 30 29 32 35 33 32 32 33 35 38 39 35 36 38 38 37 37 35 33 30 29 27 23
17 17 17 12 15 4 1 2 11 11 7 3 5 6 9 17 19 21 26 25 23 30 29 32 38 38 38 39 37 37 35 34 34 34 37 39 40 37 35 37 39 38 37 36 32 34 31 29 23
15 18 20 19 7 16 12 9 14 4 8 8 4 10 16 21 24 29 31 32 35 35 28 24 26 33 36 37 39 38 40 41 38 40 40 42 40 38 38 38 38 39 38 38 37 35 32 32 28
Wind_Direction
335 304 290 282 286 299 297 304 328 324 236 214 182 224 204 133 180 212 225 163 157 186 245 247 244 237 224 211 195 184 178 158 138 116 90 69 43 47 52 47 37 30 32 26 33 49 59 67 65
333 289 242 249 269 270 297 41 307 62 133 185 203 216 234 258 279 301 175 144 196 228 251 253 243 237 229 220 211 205 198 182 178 152 114 86 32 34 25 27 27 26 20 13 6 14 35 44 60
288 252 234 222 279 268 302 348 34 313 234 242 222 235 238 244 265 272 235 251 267 272 268 265 244 232 226 222 215 217 209 206 202 194 196 266 276 308 329 356 5 10 10 10 3 353 1 16 37
250 231 178 260 283 284 281 293 274 335 309 280 278 224 236 239 269 253 246 242 251 271 266 259 236 226 224 223 223 223 222 218 213 214 229 255 262 268 279 294 313 329 334 339 346 343 337 352 358
225 217 265 276 287 305 322 279 278 255 309 303 237 263 258 244 249 248 251 251 250 265 261 248 235 228 226 222 224 225 230 228 227 229 234 251 258 263 269 277 285 296 304 306 305 298 304 316 318
224 175 250 272 290 293 313 299 295 285 286 277 240 255 260 235 251 247 249 251 263 261 258 241 237 228 225 225 221 232 233 233 233 237 238 251 257 261 263 267 274 279 286 289 291 283 278 283 289
227 211 245 254 275 304 333 283 275 285 279 285 280 252 257 253 245 255 247 250 259 264 259 243 241 235 231 229 227 235 238 241 242 243 243 250 254 258 262 265 267 269 272 277 279 279 275 272 274
220 247 261 253 281 310 333 283 260 254 237 307 232 236 249 256 260 262 251 246 251 260 258 248 245 244 239 233 233 237 242 243 244 247 250 255 259 264 265 268 269 268 265 265 267 272 274 272 269
245 249 264 266 314 301 288 285 266 254 240 249 258 258 253 250 261 256 251 255 251 258 254 247 248 249 241 237 238 241 245 248 251 255 262 269 274 273 275 271 267 266 265 263 263 265 268 271 271
254 262 264 250 263 281 276 271 278 276 248 250 259 263 263 258 259 257 255 256 258 256 251 250 249 246 245 244 246 246 249 251 256 261 270 277 281 280 280 277 273 269 265 264 261 260 262 266 267
237 258 271 269 261 262 264 260 260 266 261 229 267 279 273 269 263 268 250 251 253 256 252 250 249 249 253 251 252 253 257 261 264 270 276 280 286 289 287 282 276 270 266 262 262 262 261 262 264
247 246 257 262 271 272 269 275 274 263 248 232 259 280 272 272 270 272 259 256 254 258 256 254 248 250 252 255 257 261 263 268 274 275 277 279 283 287 287 282 278 273 269 264 260 259 257 258 260
236 245 252 261 269 270 273 274 282 269 246 229 231 259 276 267 260 260 264 258 252 253 254 255 250 253 255 257 266 264 263 262 269 275 277 281 287 291 286 283 280 276 272 269 266 263 261 259 260
262 252 256 256 255 258 267 267 259 275 276 256 233 247 269 267 269 258 259 266 262 254 251 250 250 252 253 262 266 269 272 276 279 282 287 293 299 297 292 288 284 283 280 275 268 266 263 262 262
257 264 267 264 266 278 295 276 266 288 286 283 261 239 254 268 260 263 264 267 270 261 247 250 250 252 254 259 261 264 269 278 281 282 289 297 303 302 302 297 291 282 274 270 270 270 270 268 267
269 271 280 287 302 294 288 281 298 293 289 274 277 259 251 264 259 258 266 270 264 259 250 250 250 251 254 256 260 266 274 281 283 283 288 298 300 303 307 302 293 285 277 270 266 264 266 266 266
277 277 287 303 323 303 284 281 292 277 287 271 259 277 245 255 252 261 269 274 263 253 251 253 248 250 251 255 259 266 273 279 283 285 287 292 294 299 304 300 293 290 285 276 270 264 259 260 259
274 276 280 288 294 291 295 297 312 290 283 274 267 271 260 245 251 260 264 266 268 265 261 256 251 249 250 254 260 264 269 276 280 283 283 289 289 292 296 294 293 289 281 273 268 262 261 259 253
282 280 286 298 302 294 298 297 296 289 289 284 269 260 280 255 241 257 255 251 255 266 274 271 263 259 257 259 263 265 267 270 276 278 277 282 284 286 290 291 292 288 280 274 267 263 261 257 254
266 275 282 287 294 293 295 290 291 292 291 281 283 279 254 258 249 248 247 247 247 262 272 283 288 278 273 271 264 262 261 265 270 274 275 274 280 282 281 284 288 288 281 273 267 264 262 258 255
265 270 283 291 298 299 306 292 297 297 281 293 293 279 267 257 252 234 241 249 253 256 268 280 285 294 293 291 282 270 267 268 270 273 273 272 274 278 276 277 278 281 280 274 268 266 264 263 261
273 272 284 299 302 308 305 297 302 299 303 297 284 262 259 232 228 219 242 242 251 262 265 277 285 287 284 289 291 287 282 274 266 261 263 266 267 270 271 268 271 270 268 268 266 267 265 263 262
264 262 267 281 284 295 296 282 287 295 287 235 262 245 164 191 194 211 225 227 241 249 261 275 282 282 284 288 292 295 294 286 271 263 261 261 263 264 268 267 266 265 263 261 262 264 265 262 258
245 248 253 254 275 277 270 234 293 326 191 204 227 238 216 168 188 198 222 241 256 256 262 271 277 284 288 288 292 294 290 283 272 265 261 261 261 263 264 266 264 264 262 260 262 263 265 263 261
238 242 257 261 197 242 308 263 241 213 187 237 246 243 257 275 268 261 250 267 273 256 250 260 269 281 291 294 293 297 294 284 276 266 260 258 259 261 263 264 264 262 259 257 258 258 262 264 265
228 211 190 204 204 268 292 265 159 196 216 217 242 268 274 293 275 257 257 256 257 273 280 275 275 278 283 289 297 299 301 292 283 273 261 259 259 258 259 261 261 260 259 257 257 259 259 262 264
223 216 228 263 273 292 237 109 161 187 184 203 242 257 280 276 270 279 301 259 270 278 283 285 292 298 295 289 292 297 299 294 290 281 267 257 253 254 256 259 258 258 258 258 257 257 259 262 265
222 230 224 215 200 218 242 214 220 171 172 163 160 154 24 330 318 314 311 298 299 300 305 304 301 300 296 294 290 288 287 285 283 281 271 263 259 255 258 259 257 256 256 257 258 260 260 260 263
210 205 212 212 221 183 304 248 185 139 165 99 27 330 322 321 323 308 301 301 295 297 298 289 292 293 294 296 294 287 282 279 274 270 270 263 257 252 246 251 254 254 254 255 255 261 258 251 255
225 225 225 222 228 230 239 229 151 39 355 330 310 312 312 309 297 300 305 302 298 297 290 295 282 281 290 297 295 295 290 282 273 267 264 263 258 255 253 247 245 248 249 252 255 252 251 257 256